TimeEDT,TemperatureF,Dew PointF,Humidity,Sea Level PressureIn,VisibilityMPH,Wind Direction,Wind SpeedMPH,Gust SpeedMPH,PrecipitationIn,Events,Conditions,WindDirDegrees,DateUTC
12:14 AM,40.1,35.2,83,30.11,10.0,Calm,Calm,-,N/A,,Overcast,0,2012-10-07 04:14:00
12:35 AM,40.1,35.6,84,30.11,10.0,Calm,Calm,-,N/A,,Overcast,0,2012-10-07 04:35:00
12:55 AM,40.1,35.6,84,30.11,10.0,Calm,Calm,-,N/A,,Overcast,0,2012-10-07 04:55:00
1:14 AM,40.1,35.8,85,30.11,10.0,Calm,Calm,-,N/A,,Overcast,0,2012-10-07 05:14:00
1:35 AM,40.1,36.0,85,30.10,10.0,Calm,Calm,-,N/A,,Overcast,0,2012-10-07 05:35:00
1:55 AM,39.9,36.0,86,30.11,10.0,Calm,Calm,-,N/A,,Unknown,0,2012-10-07 05:55:00
2:14 AM,40.1,35.6,84,30.10,10.0,SSW,4.6,-,N/A,,Overcast,210,2012-10-07 06:14:00
2:35 AM,39.6,37.2,91,30.11,10.0,Calm,Calm,-,N/A,,Overcast,0,2012-10-07 06:35:00
3:14 AM,39.2,36.9,91,30.10,10.0,Calm,Calm,-,N/A,,Overcast,0,2012-10-07 07:14:00
3:35 AM,39.2,37.4,93,30.10,10.0,Calm,Calm,-,N/A,,Overcast,0,2012-10-07 07:35:00
3:54 AM,38.8,36.9,93,30.09,10.0,Calm,Calm,-,N/A,,Overcast,0,2012-10-07 07:54:00
4:14 AM,38.5,36.7,93,30.09,10.0,Calm,Calm,-,N/A,,Overcast,0,2012-10-07 08:14:00
4:35 AM,38.5,36.7,93,30.09,10.0,Calm,Calm,-,N/A,,Overcast,0,2012-10-07 08:35:00
4:54 AM,38.3,36.5,93,30.09,10.0,Calm,Calm,-,N/A,,Overcast,0,2012-10-07 08:54:00
5:15 AM,38.5,36.5,93,30.09,10.0,Calm,Calm,-,N/A,,Overcast,0,2012-10-07 09:15:00
5:35 AM,38.5,36.5,93,30.09,10.0,NW,3.5,-,N/A,,Overcast,310,2012-10-07 09:35:00
5:54 AM,38.3,36.1,92,30.09,10.0,NNW,3.5,-,N/A,,Overcast,340,2012-10-07 09:54:00
6:15 AM,38.3,36.5,93,30.09,10.0,NNW,4.6,-,N/A,,Overcast,340,2012-10-07 10:15:00
6:35 AM,38.3,36.5,93,30.09,10.0,Calm,Calm,-,N/A,,Overcast,0,2012-10-07 10:35:00
6:54 AM,38.3,36.5,93,30.09,10.0,Calm,Calm,-,N/A,,Overcast,0,2012-10-07 10:54:00
7:15 AM,38.3,36.5,93,30.09,10.0,Calm,Calm,-,N/A,,Overcast,0,2012-10-07 11:15:00
7:35 AM,38.5,36.5,93,30.09,10.0,Calm,Calm,-,N/A,,Overcast,0,2012-10-07 11:35:00
7:54 AM,38.3,36.5,93,30.10,10.0,Calm,Calm,-,N/A,,Overcast,0,2012-10-07 11:54:00
8:15 AM,38.3,36.5,93,30.10,10.0,Calm,Calm,-,N/A,,Overcast,0,2012-10-07 12:15:00
8:35 AM,38.5,36.5,93,30.10,10.0,Calm,Calm,-,N/A,,Overcast,0,2012-10-07 12:35:00
8:54 AM,38.5,36.5,93,30.11,10.0,Calm,Calm,-,N/A,,Overcast,0,2012-10-07 12:54:00
9:15 AM,39.4,37.0,91,30.11,10.0,Calm,Calm,-,N/A,,Overcast,0,2012-10-07 13:15:00
9:34 AM,39.9,36.9,89,30.11,10.0,Calm,Calm,-,N/A,,Overcast,0,2012-10-07 13:34:00
9:54 AM,40.5,36.1,85,30.11,10.0,Calm,Calm,-,N/A,,Overcast,0,2012-10-07 13:54:00
10:15 AM,41.0,35.4,81,30.11,10.0,Calm,Calm,-,N/A,,Overcast,0,2012-10-07 14:15:00
10:34 AM,41.9,34.0,73,30.11,10.0,NNW,3.5,-,N/A,,Overcast,330,2012-10-07 14:34:00
10:54 AM,42.8,33.4,70,30.11,10.0,WNW,4.6,-,N/A,,Overcast,300,2012-10-07 14:54:00
11:15 AM,43.5,32.5,65,30.10,10.0,NW,4.6,-,N/A,,Overcast,310,2012-10-07 15:15:00
11:34 AM,43.7,32.2,64,30.10,10.0,WNW,4.6,-,N/A,,Overcast,300,2012-10-07 15:34:00
11:54 AM,44.6,32.0,61,30.10,10.0,West,4.6,-,N/A,,Overcast,260,2012-10-07 15:54:00
12:15 PM,44.8,30.9,58,30.10,10.0,NNW,3.5,-,N/A,,Overcast,340,2012-10-07 16:15:00
12:34 PM,44.6,29.8,56,30.10,10.0,West,8.1,-,N/A,,Overcast,280,2012-10-07 16:34:00
12:55 PM,45.3,30.9,57,30.10,10.0,Calm,Calm,-,N/A,,Overcast,0,2012-10-07 16:55:00
1:14 PM,46.2,30.6,54,30.10,10.0,NW,6.9,-,N/A,,Overcast,310,2012-10-07 17:14:00
1:34 PM,46.4,31.3,56,30.09,10.0,WNW,8.1,-,N/A,,Overcast,300,2012-10-07 17:34:00
1:55 PM,46.0,32.0,58,30.09,10.0,WNW,12.7,-,N/A,,Overcast,290,2012-10-07 17:55:00
2:14 PM,46.2,30.4,54,30.08,10.0,NW,6.9,-,N/A,,Overcast,320,2012-10-07 18:14:00
2:35 PM,46.0,31.3,56,30.08,10.0,WNW,9.2,-,N/A,,Overcast,300,2012-10-07 18:35:00
2:55 PM,46.6,30.4,53,30.08,10.0,WNW,9.2,-,N/A,,Overcast,300,2012-10-07 18:55:00
3:14 PM,46.8,28.8,50,30.08,10.0,West,10.4,16.1,N/A,,Overcast,280,2012-10-07 19:14:00
3:35 PM,46.4,27.7,48,30.07,10.0,West,10.4,-,N/A,,Overcast,280,2012-10-07 19:35:00
3:55 PM,46.6,25.7,44,30.07,10.0,NW,6.9,-,N/A,,Overcast,310,2012-10-07 19:55:00
4:14 PM,47.3,26.1,44,30.07,10.0,WSW,6.9,-,N/A,,Overcast,250,2012-10-07 20:14:00
4:35 PM,47.3,27.5,46,30.06,10.0,WSW,8.1,-,N/A,,Overcast,240,2012-10-07 20:35:00
4:55 PM,46.8,26.4,45,30.06,10.0,West,9.2,-,N/A,,Overcast,260,2012-10-07 20:55:00
5:14 PM,46.4,27.9,48,30.06,10.0,West,8.1,-,N/A,,Overcast,280,2012-10-07 21:14:00
5:35 PM,45.9,28.0,50,30.06,10.0,West,5.8,-,N/A,,Overcast,270,2012-10-07 21:35:00
5:55 PM,45.5,25.2,45,30.07,10.0,West,5.8,-,N/A,,Overcast,280,2012-10-07 21:55:00
6:14 PM,45.3,24.4,44,30.07,10.0,West,9.2,-,N/A,,Overcast,270,2012-10-07 22:14:00
6:35 PM,44.6,23.2,43,30.07,10.0,West,8.1,-,N/A,,Overcast,280,2012-10-07 22:35:00
6:55 PM,44.2,22.8,43,30.08,10.0,West,6.9,-,N/A,,Overcast,270,2012-10-07 22:55:00
7:14 PM,43.7,23.9,46,30.08,10.0,West,3.5,-,N/A,,Overcast,270,2012-10-07 23:14:00
7:35 PM,43.0,24.4,48,30.08,10.0,SW,3.5,-,N/A,,Overcast,230,2012-10-07 23:35:00
7:55 PM,42.8,24.8,49,30.08,10.0,WSW,4.6,-,N/A,,Overcast,240,2012-10-07 23:55:00
8:14 PM,42.3,25.5,52,30.08,10.0,WSW,3.5,-,N/A,,Overcast,250,2012-10-08 00:14:00
8:35 PM,41.9,25.9,53,30.08,10.0,Calm,Calm,-,N/A,,Overcast,0,2012-10-08 00:35:00
8:55 PM,41.0,25.7,55,30.08,10.0,SW,3.5,-,N/A,,Overcast,220,2012-10-08 00:55:00
9:14 PM,39.4,26.2,59,30.08,10.0,Calm,Calm,-,N/A,,Scattered Clouds,0,2012-10-08 01:14:00
9:35 PM,34.5,25.9,71,30.09,10.0,WSW,3.5,-,N/A,,Clear,240,2012-10-08 01:35:00
9:55 PM,32.2,26.4,79,30.09,10.0,SSW,3.5,-,N/A,,Clear,210,2012-10-08 01:55:00
10:14 PM,32.0,25.9,78,30.09,10.0,Calm,Calm,-,N/A,,Clear,0,2012-10-08 02:14:00
10:35 PM,32.7,27.9,82,30.09,10.0,Calm,Calm,-,N/A,,Clear,0,2012-10-08 02:35:00
10:55 PM,32.0,27.7,84,30.10,10.0,Calm,Calm,-,N/A,,Clear,0,2012-10-08 02:55:00
11:14 PM,31.1,25.7,80,30.10,10.0,Calm,Calm,-,N/A,,Clear,0,2012-10-08 03:14:00
11:35 PM,30.4,25.3,82,30.11,10.0,Calm,Calm,-,N/A,,Clear,0,2012-10-08 03:35:00
11:55 PM,29.1,24.6,83,30.11,10.0,Calm,Calm,-,N/A,,Clear,0,2012-10-08 03:55:00